Location: C.E.K. Mees Observatory
(42.7003°N, 77.4088°W)
Time: 06:28:46
(UTC-04:00)

Vanguard 3 - Pass Details

Date: 02 July 2018
Orbit: 508 x 3264 km, 33.3° (Epoch: 24 September)

Event Time Altitude Azimuth Distance (km) Brightness Sun altitude
Rises 01:02:28 0° 228° (SW) 2,688 - -24.2°
Reaches altitude 10° 01:05:22 10° 205° (SSW) 1,713 - -24.2°
Maximum altitude 01:07:41 16° 165° (SSE) 1,389 - -24.2°
Drops below altitude 10° 01:10:05 10° 125° (SE) 1,793 - -24.3°
Sets 01:13:14 0° 103° (ESE) 2,889 - -24.3°
